Location: Barrio de Buenos Aires
(28.4500°N, 16.2667°W)
Time: 17:05:39
(UTC+00:00)

Cosmos 1939 Rocket - Pass Details

Date: 24 January 2020
Orbit: 534 x 583 km, 97.4° (Epoch: 25 February)

Event Time Altitude Azimuth Distance (km) Brightness Sun altitude
Rises 19:56:16 0° 167° (SSE) 2,673 6.3 -17.3°
Reaches altitude 10° 19:58:22 10° 167° (SSE) 1,790 5.4 -17.8°
Maximum altitude 20:02:14 87° 77° (ENE) 548 2.7 -18.6°
Drops below altitude 10° 20:06:11 10° 350° (N) 1,825 5.5 -19.4°
Sets 20:08:19 0° 350° (N) 2,730 6.4 -19.9°
